Location: Kerentrech
(47.7567°N, 3.3595°W)
Time: 22:58:08
(UTC+00:00)

Cosmos 2173 Rocket - Pass Details

Date: 17 February 2020
Orbit: 944 x 1002 km, 83.0° (Epoch: 05 April)

Event Time Altitude Azimuth Distance (km) Brightness Sun altitude
Rises 06:25:31 0° 346° (NNW) 3,720 6.8 -9.3°
Reaches altitude 10° 06:28:10 10° 339° (NNW) 2,760 6.1 -8.9°
Maximum altitude 06:34:03 43° 271° (W) 1,359 4.4 -7.9°
Drops below altitude 10° 06:39:50 10° 203° (SSW) 2,706 6.2 -6.9°
Sets 06:42:25 0° 196° (SSW) 3,639 6.9 -6.5°
